N3HBJ Weather Reports


Display with metric or nautical units.
time (UTC)temp
F
wind
direction
speed
MPH
gust
MPH
rain 1hr
in
rain 24hr
in
rain mn
in
humidity
%
barometer
mb
20260905195918 78 329 0.0 4.0 0.00 0.00 0.00 52 1013.3
20260905195908 78 281 0.0 5.0 0.00 0.00 0.00 50 1013.3
20260905194907 78 205 0.0 2.0 0.00 0.00 0.00 51 1013.3
20260905194401 78 243 0.0 4.0 0.00 0.00 0.00 50 1013.4
20260905193854 77 249 0.0 4.0 0.00 0.00 0.00 55 1013.4
20260905193349 76 292 0.0 3.0 0.00 0.00 0.00 53 1013.4
20260905192842 76 292 0.0 3.0 0.00 0.00 0.00 53 1013.5
20260905192337 77 291 0.0 4.0 0.00 0.00 0.00 52 1013.6
20260905192309 77 269 0.0 7.0 0.00 0.00 0.00 52 1013.6
20260905191547 77 192 0.0 7.0 0.00 0.00 0.00 54 1013.6
20260905190819 77 253 0.0 3.0 0.00 0.00 0.00 54 1013.7
20260905190315 77 296 0.0 3.0 0.00 0.00 0.00 52 1013.7
20260905185806 77 291 0.0 6.0 0.00 0.00 0.00 54 1013.8
20260905185300 77 161 0.0 7.0 0.00 0.00 0.00 52 1013.7
20260905185016 77 288 0.0 7.0 0.00 0.00 0.00 53 1013.7
20260905184248 76 281 0.0 2.0 0.00 0.00 0.00 53 1013.8
20260905183742 76 176 0.0 2.0 0.00 0.00 0.00 53 1013.8
20260905183237 77 279 0.0 2.0 0.00 0.00 0.00 52 1013.8
20260905183215 77 311 0.0 1.0 0.00 0.00 0.00 53 1013.8
20260905182224 77 304 0.0 4.0 0.00 0.00 0.00 56 1013.9
20260905181718 76 224 0.0 4.0 0.00 0.00 0.00 58 1013.9
20260905181225 76 289 0.0 3.0 0.00 0.00 0.00 57 1014.0
20260905180938 75 177 0.0 2.0 0.00 0.00 0.00 55 1014.1
20260905180228 74 281 0.0 6.0 0.00 0.00 0.00 59 1014.1
20260905175711 74 287 0.0 6.0 0.00 0.00 0.00 59 1014.2
20260905175210 74 244 0.0 2.0 0.00 0.00 0.00 60 1014.2
20260905174708 75 291 0.0 4.0 0.00 0.00 0.00 59 1014.2
20260905174206 75 291 0.0 4.0 0.00 0.00 0.00 57 1014.2
20260905173929 76 234 1.0 7.0 0.00 0.00 0.00 59 1014.2
20260905173205 75 213 1.0 7.0 0.00 0.00 0.00 60 1014.2
20260905172718 75 215 0.0 3.0 0.00 0.00 0.00 61 1014.4
20260905172203 75 192 0.0 3.0 0.00 0.00 0.00 60 1014.4
20260905171701 74 158 0.0 3.0 0.00 0.00 0.00 64 1014.5
20260905171214 74 309 0.0 5.0 0.00 0.00 0.00 65 1014.5
20260905170700 74 202 1.0 5.0 0.00 0.00 0.00 60 1014.6
20260905170200 74 294 0.0 4.0 0.00 0.00 0.00 60 1014.7
20260905165701 74 221 0.0 2.0 0.00 0.00 0.00 61 1014.6
20260905165159 74 238 0.0 3.0 0.00 0.00 0.00 64 1014.6
20260905164659 74 276 0.0 4.0 0.00 0.00 0.00 65 1014.7
20260905164211 74 277 0.0 4.0 0.00 0.00 0.00 64 1014.8
20260905163658 74 171 0.0 4.0 0.00 0.00 0.00 67 1014.9
20260905163159 73 168 0.0 4.0 0.00 0.00 0.00 67 1014.9
20260905162923 74 306 0.0 2.0 0.00 0.00 0.00 66 1015.0
20260905162158 74 319 0.0 4.0 0.00 0.00 0.00 65 1015.0
20260905161658 74 302 0.0 4.0 0.00 0.00 0.00 65 1015.1
20260905161159 73 256 0.0 3.0 0.00 0.00 0.00 69 1015.1
20260905160658 72 273 0.0 3.0 0.00 0.00 0.00 67 1015.1
20260905160158 72 190 0.0 0.0 0.00 0.00 0.00 67 1015.3
20260905160141 72 179 0.0 0.0 0.00 0.00 0.00 69 1015.2
20260905155419 72 164 0.0 1.0 0.00 0.00 0.00 70 1015.2
20260905154658 72 164 0.0 1.0 0.00 0.00 0.00 69 1015.3
20260905154426 72 165 0.0 1.0 0.00 0.00 0.00 68 1015.4
20260905153658 72 273 0.0 0.0 0.00 0.00 0.00 69 1015.3
20260905153154 72 275 0.0 0.0 0.00 0.00 0.00 70 1015.3
20260905152652 71 275 0.0 0.0 0.00 0.00 0.00 72 1015.3
20260905152149 70 275 0.0 0.0 0.00 0.00 0.00 72 1015.3
20260905152126 70 275 0.0 0.0 0.00 0.00 0.00 72 1015.3
20260905151146 70 275 0.0 3.0 0.00 0.00 0.00 72 1015.3
20260905150639 70 248 0.0 3.0 0.00 0.00 0.00 72 1015.3
20260905150350 70 256 0.0 1.0 0.00 0.00 0.00 72 1015.3
20260905145628 70 253 0.0 3.0 0.00 0.00 0.00 72 1015.2
20260905145610 70 266 0.0 3.0 0.00 0.00 0.00 71 1015.2
20260905144615 71 160 0.0 2.0 0.00 0.00 0.00 72 1015.2
20260905144335 71 304 0.0 2.0 0.00 0.00 0.00 73 1015.1
20260905143606 71 304 0.0 3.0 0.00 0.00 0.00 72 1015.1
20260905143058 71 284 0.0 3.0 0.00 0.00 0.00 72 1015.1
20260905142820 71 284 0.0 5.0 0.00 0.00 0.00 71 1015.1
20260905142047 71 223 0.0 5.0 0.00 0.00 0.00 72 1014.9
20260905141540 71 302 0.0 4.0 0.00 0.00 0.00 73 1014.9
20260905141033 71 311 0.0 4.0 0.00 0.00 0.00 74 1015.0
20260905140527 70 288 0.0 2.0 0.00 0.00 0.00 77 1015.0
20260905140021 69 288 0.0 2.0 0.00 0.00 0.00 75 1015.0
20260905135515 69 282 0.0 0.0 0.00 0.00 0.00 76 1014.8
20260905135009 69 283 0.0 1.0 0.00 0.00 0.00 78 1014.8
20260905134504 69 283 0.0 2.0 0.00 0.00 0.00 77 1014.7
20260905133957 69 283 0.0 1.0 0.00 0.00 0.00 77 1014.7
20260905133452 69 283 0.0 1.0 0.00 0.00 0.00 78 1014.9
20260905132945 69 284 0.0 2.0 0.00 0.00 0.00 78 1014.9
20260905132440 69 286 0.0 2.0 0.00 0.00 0.00 78 1014.8
20260905131933 69 286 0.0 2.0 0.00 0.00 0.00 78 1014.7
20260905131429 69 208 0.0 2.0 0.00 0.00 0.00 78 1014.8
20260905130936 69 288 0.0 3.0 0.00 0.00 0.00 78 1014.7
20260905130430 69 289 0.0 3.0 0.00 0.00 0.00 80 1014.8
20260905125909 68 245 0.0 1.0 0.00 0.00 0.00 80 1015.0
20260905125851 68 245 0.0 1.0 0.00 0.00 0.00 81 1015.0
20260905124857 68 245 0.0 0.0 0.00 0.00 0.00 80 1015.0
20260905124610 68 245 0.0 0.0 0.00 0.00 0.00 80 1015.0
20260905123845 68 245 0.0 0.0 0.00 0.00 0.00 81 1014.8
20260905123339 68 245 0.0 1.0 0.00 0.00 0.00 82 1014.6
20260905122833 68 245 0.0 1.0 0.00 0.00 0.00 82 1014.7
20260905122549 68 245 0.0 1.0 0.00 0.00 0.00 82 1014.6
20260905121821 68 245 0.0 0.0 0.00 0.00 0.00 83 1014.5
20260905121537 68 245 0.0 0.0 0.00 0.00 0.00 83 1014.5
20260905120809 67 242 0.0 1.0 0.00 0.00 0.00 83 1014.4
20260905120304 67 242 0.0 3.0 0.00 0.00 0.00 84 1014.4
20260905115757 67 242 0.0 3.0 0.00 0.00 0.00 84 1014.3
20260905115510 67 239 0.0 3.0 0.00 0.00 0.00 84 1014.4
20260905114745 67 239 0.0 3.0 0.00 0.00 0.00 84 1014.4
20260905114253 67 302 0.0 0.0 0.00 0.00 0.00 85 1014.5
20260905113735 66 302 0.0 0.0 0.00 0.00 0.00 86 1014.6
20260905113227 66 302 0.0 0.0 0.00 0.00 0.00 87 1014.6
20260905112721 66 302 0.0 1.0 0.00 0.00 0.00 87 1014.7
20260905112215 66 302 0.0 1.0 0.00 0.00 0.00 88 1014.6
20260905111709 66 302 0.0 0.0 0.00 0.00 0.00 88 1014.7
20260905111204 66 302 0.0 0.0 0.00 0.00 0.00 88 1014.6
20260905110659 66 302 0.0 0.0 0.00 0.00 0.00 87 1014.5
20260905110153 66 302 0.0 0.0 0.00 0.00 0.00 87 1014.4
20260905105648 66 302 0.0 0.0 0.00 0.00 0.00 87 1014.3
20260905105139 66 302 0.0 0.0 0.00 0.00 0.00 86 1014.1
20260905104633 66 302 0.0 0.0 0.00 0.00 0.00 86 1014.0
20260905104127 66 302 0.0 0.0 0.00 0.00 0.00 86 1013.9
20260905103635 66 302 0.0 0.0 0.00 0.00 0.00 86 1013.9
20260905103115 66 302 0.0 0.0 0.00 0.00 0.00 86 1013.8
20260905102609 66 302 0.0 0.0 0.00 0.00 0.00 86 1013.8
20260905102110 66 302 0.0 0.0 0.00 0.00 0.00 86 1013.9
20260905101610 66 302 0.0 0.0 0.00 0.00 0.00 86 1013.9
20260905101107 67 302 0.0 0.0 0.00 0.00 0.00 85 1013.9
20260905100607 67 302 0.0 0.0 0.00 0.00 0.00 85 1013.9
20260905100111 67 302 0.0 0.0 0.00 0.00 0.00 84 1013.8
20260905095603 67 302 0.0 0.0 0.00 0.00 0.00 84 1013.7
20260905095101 67 302 0.0 0.0 0.00 0.00 0.00 85 1013.7
20260905094601 67 302 0.0 0.0 0.00 0.00 0.00 84 1013.7
20260905094059 67 302 0.0 0.0 0.00 0.00 0.00 85 1013.8
20260905093822 67 302 0.0 0.0 0.00 0.00 0.00 84 1013.7
20260905093059 67 302 0.0 0.0 0.00 0.00 0.00 84 1013.8
20260905092556 67 302 0.0 0.0 0.00 0.00 0.00 85 1013.6
20260905092056 67 302 0.0 0.0 0.00 0.00 0.00 84 1013.8
20260905091555 67 302 0.0 0.0 0.00 0.00 0.00 85 1013.9
20260905091052 67 302 0.0 0.0 0.00 0.00 0.00 85 1013.8
20260905090818 67 302 0.0 1.0 0.00 0.00 0.00 85 1013.7
20260905090104 67 302 0.0 1.0 0.00 0.00 0.00 85 1013.8
20260905085819 67 302 0.0 0.0 0.00 0.00 0.00 85 1013.7
20260905085051 67 302 0.0 3.0 0.00 0.00 0.00 87 1013.7
20260905084816 68 302 0.0 4.0 0.00 0.00 0.00 88 1013.6
20260905084051 68 288 0.0 4.0 0.00 0.00 0.00 89 1013.6
20260905083551 68 126 0.0 0.0 0.00 0.00 0.00 90 1013.7
20260905083311 68 126 0.0 0.0 0.00 0.00 0.00 90 1013.5
20260905082547 68 126 0.0 0.0 0.00 0.00 0.00 90 1013.5
20260905082048 68 126 0.0 0.0 0.00 0.00 0.00 90 1013.6
20260905081547 68 126 0.0 0.0 0.00 0.00 0.00 90 1013.6
20260905081312 68 126 0.0 0.0 0.00 0.00 0.00 90 1013.7
20260905080548 68 126 0.0 0.0 0.00 0.00 0.00 90 1013.7
20260905080058 68 126 0.0 0.0 0.00 0.00 0.00 90 1013.8
20260905075814 68 126 0.0 0.0 0.00 0.00 0.00 90 1013.9
20260905075043 68 126 0.0 0.0 0.00 0.00 0.00 89 1013.9
20260905074543 68 126 0.0 0.0 0.00 0.00 0.00 90 1014.0
20260905074306 69 126 0.0 0.0 0.00 0.00 0.00 89 1013.9
20260905073811 69 126 0.0 0.0 0.00 0.00 0.00 89 1013.9
20260905073040 69 126 0.0 0.0 0.00 0.00 0.00 89 1014.0
20260905072803 69 126 0.0 0.0 0.00 0.00 0.00 89 1014.0
20260905072028 69 126 0.0 0.0 0.00 0.00 0.00 89 1013.9
20260905071747 69 126 0.0 0.0 0.00 0.00 0.00 89 1014.0
20260905071500 69 126 0.0 0.0 0.00 0.00 0.00 89 1014.1
20260905070738 69 126 0.0 0.0 0.00 0.00 0.00 89 1014.1
20260905070004 69 126 0.0 0.0 0.00 0.00 0.00 89 1014.1
20260905065459 69 126 0.0 0.0 0.00 0.00 0.00 89 1014.2
20260905064953 69 126 0.0 0.0 0.00 0.00 0.00 89 1014.3
20260905064447 69 126 0.0 0.0 0.00 0.00 0.00 89 1014.3
20260905064208 69 126 0.0 0.0 0.00 0.00 0.00 89 1014.4
20260905063434 69 126 0.0 0.0 0.00 0.00 0.00 89 1014.4
20260905062928 69 126 0.0 0.0 0.00 0.00 0.00 89 1014.4
20260905062425 69 126 0.0 0.0 0.00 0.00 0.00 89 1014.5
20260905061917 69 126 0.0 0.0 0.00 0.00 0.00 89 1014.5
20260905061410 69 126 0.0 0.0 0.00 0.00 0.00 88 1014.5
20260905060904 69 126 0.0 0.0 0.00 0.00 0.00 88 1014.6
20260905060358 69 126 0.0 0.0 0.00 0.00 0.00 88 1014.7
20260905055852 69 126 0.0 0.0 0.00 0.00 0.00 88 1014.7
20260905055604 69 126 0.0 0.0 0.00 0.00 0.00 88 1014.7
20260905054841 69 126 0.0 0.0 0.00 0.00 0.00 88 1014.7
20260905054334 69 126 0.0 0.0 0.00 0.00 0.00 88 1014.7
20260905054048 69 126 0.0 0.0 0.00 0.00 0.00 88 1014.9
20260905053322 69 126 0.0 0.0 0.00 0.00 0.00 88 1014.8
20260905052821 69 126 0.0 0.0 0.00 0.00 0.00 88 1014.9
20260905052313 69 126 0.0 0.0 0.00 0.00 0.00 88 1014.9
20260905051805 69 126 0.0 0.0 0.00 0.00 0.00 88 1015.0
20260905051259 69 126 0.0 0.0 0.00 0.00 0.00 88 1014.9
20260905050757 70 126 0.0 0.0 0.00 0.00 0.00 88 1014.9
20260905050256 70 126 0.0 0.0 0.00 0.00 0.00 88 1014.9
20260905050018 70 126 0.0 0.0 0.00 0.00 0.00 88 1014.9
20260905045253 70 126 0.0 0.0 0.00 0.00 0.00 88 1015.0
20260905044751 69 126 0.0 0.0 0.00 0.00 0.00 88 1015.0
20260905044251 69 126 0.0 0.0 0.00 0.00 0.00 88 1015.1
20260905043751 70 126 0.0 1.0 0.00 0.00 0.00 88 1015.1
20260905043248 69 126 0.0 1.0 0.00 0.00 0.00 88 1015.1
20260905042747 69 126 0.0 1.0 0.00 0.00 0.00 88 1015.1
20260905042248 69 126 0.0 1.0 0.00 0.00 0.00 88 1015.1
20260905042014 69 126 0.0 0.0 0.00 0.00 0.00 88 1015.0
20260905041245 69 126 0.0 0.0 0.00 0.00 0.00 88 1014.9
20260905040756 69 126 0.0 2.0 0.00 0.00 0.00 88 1014.9
20260905040242 69 126 0.0 2.0 0.00 0.00 0.00 88 1014.9
20260905035742 69 126 0.0 0.0 0.00 0.00 0.00 89 1015.0
20260905035240 69 126 0.0 0.0 0.00 0.00 0.00 89 1015.0
20260905034741 69 126 0.0 0.0 0.00 0.00 0.00 89 1014.9
20260905034241 69 126 0.0 0.0 0.00 0.00 0.00 89 1014.8
20260905033736 69 126 0.0 0.0 0.00 0.00 0.00 89 1014.9
20260905033236 69 126 0.0 0.0 0.00 0.00 0.00 90 1014.8
20260905032737 69 126 0.0 0.0 0.00 0.00 0.00 90 1014.9
20260905032237 69 126 0.0 0.0 0.00 0.00 0.00 90 1014.8
20260905031737 69 126 0.0 0.0 0.00 0.00 0.00 90 1014.8
20260905031236 69 126 0.0 0.0 0.00 0.00 0.00 89 1014.7
20260905030737 69 126 0.0 0.0 0.00 0.00 0.00 89 1014.6
20260905030243 69 126 0.0 0.0 0.00 0.00 0.00 89 1014.7
20260905025737 69 126 0.0 0.0 0.00 0.00 0.00 89 1014.7
20260905025233 69 126 0.0 0.0 0.00 0.00 0.00 89 1014.6
20260905024732 69 126 0.0 0.0 0.00 0.00 0.00 89 1014.7
20260905024232 69 126 0.0 0.0 0.00 0.01 0.00 89 1014.6
20260905023731 69 126 0.0 0.0 0.00 0.01 0.00 89 1014.7
20260905023715 69 126 0.0 0.0 0.00 0.01 0.00 89 1014.8
20260905022730 69 126 0.0 0.0 0.00 0.02 0.00 89 1014.9
20260905022230 69 126 0.0 0.0 0.00 0.02 0.00 89 1014.9
20260905021728 69 126 0.0 0.0 0.00 0.03 0.00 88 1014.9
20260905021228 69 126 0.0 0.0 0.00 0.03 0.00 88 1014.9
20260905020727 69 126 0.0 0.0 0.00 0.03 0.00 89 1014.9
20260905020239 68 126 0.0 0.0 0.00 0.04 0.00 88 1014.9
20260905015722 68 126 0.0 0.0 0.00 0.04 0.00 88 1014.8
20260905015221 68 126 0.0 0.0 0.00 0.04 0.00 88 1014.8
20260905014715 69 126 0.0 0.0 0.00 0.04 0.00 87 1014.8
20260905014209 69 126 0.0 0.0 0.00 0.04 0.00 87 1014.7
20260905013704 69 126 0.0 0.0 0.00 0.05 0.00 87 1014.7
20260905013158 69 126 0.0 0.0 0.00 0.05 0.00 87 1014.8
20260905012653 69 126 0.0 0.0 0.00 0.05 0.00 87 1014.8
20260905012145 69 126 0.0 0.0 0.00 0.05 0.00 86 1014.7
20260905011639 69 126 0.0 0.0 0.00 0.05 0.00 86 1014.6
20260905011133 69 126 0.0 0.0 0.00 0.05 0.00 86 1014.6
20260905010627 69 126 0.0 0.0 0.00 0.05 0.00 85 1014.6
20260905010121 70 126 0.0 0.0 0.00 0.05 0.00 85 1014.5
20260905005837 70 126 0.0 0.0 0.00 0.05 0.00 85 1014.7
20260905005110 70 126 0.0 0.0 0.00 0.05 0.00 85 1014.7
20260905004603 70 126 0.0 0.0 0.00 0.05 0.00 84 1014.6
20260905004057 70 126 0.0 0.0 0.00 0.05 0.00 83 1014.6
20260905003813 71 126 0.0 0.0 0.00 0.05 0.00 83 1014.5
20260905003045 71 126 0.0 0.0 0.00 0.05 0.00 83 1014.4
20260905002539 71 126 0.0 0.0 0.00 0.05 0.00 82 1014.5
20260905002300 71 126 0.0 0.0 0.00 0.05 0.00 81 1014.5
20260905001528 72 126 0.0 0.0 0.00 0.05 0.00 81 1014.4
20260905001240 72 126 0.0 0.0 0.00 0.05 0.00 81 1014.4
20260905000515 72 126 0.0 0.0 0.00 0.05 0.00 80 1014.3
20260905000010 73 126 0.0 0.0 0.00 0.05 0.00 79 1014.2
20260904235732 73 126 0.0 0.0 0.00 0.05 0.00 79 1014.2
20260904234958 73 126 0.0 0.0 0.00 0.05 0.00 78 1014.1
20260904234451 74 126 0.0 0.0 0.00 0.05 0.00 77 1014.1
20260904233945 74 126 0.0 0.0 0.00 0.05 0.00 78 1014.2
20260904233440 74 126 0.0 0.0 0.00 0.06 0.00 76 1014.3
20260904232933 75 126 0.0 0.0 0.00 0.06 0.00 76 1014.4
20260904232646 75 126 0.0 0.0 0.00 0.06 0.00 76 1014.3
20260904232144 75 126 0.0 0.0 0.00 0.06 0.00 75 1014.4
20260904231416 75 126 0.0 0.0 0.00 0.06 0.00 74 1014.4
20260904230910 75 126 0.0 0.0 0.00 0.07 0.00 74 1014.3
20260904230404 76 126 0.0 0.0 0.00 0.07 0.00 73 1014.3
20260904225857 76 126 0.0 0.0 0.00 0.07 0.00 72 1014.2
20260904225351 77 126 0.0 0.0 0.00 0.07 0.00 71 1014.2
20260904224900 77 126 0.0 0.0 0.00 0.07 0.00 69 1014.1
20260904224605 78 126 0.0 0.0 0.00 0.07 0.00 68 1014.2
20260904223840 78 126 0.0 0.0 0.00 0.07 0.00 67 1014.2
20260904223600 78 126 0.0 0.0 0.00 0.07 0.00 66 1014.2
20260904222836 78 126 0.0 1.0 0.00 0.07 0.00 67 1014.2
20260904222335 79 126 0.0 1.0 0.00 0.07 0.00 67 1014.2
20260904221836 79 126 0.0 3.0 0.00 0.07 0.00 65 1014.1
20260904221334 79 126 0.0 3.0 0.00 0.07 0.00 65 1014.2
20260904221057 79 178 0.0 2.0 0.00 0.07 0.00 64 1014.2
20260904220331 79 178 0.0 2.0 0.00 0.07 0.00 64 1014.2
20260904215832 80 196 0.0 1.0 0.00 0.07 0.00 65 1014.2
20260904215329 80 195 0.0 1.0 0.00 0.07 0.00 63 1014.1
20260904214828 80 276 0.0 2.0 0.00 0.07 0.00 63 1014.0
20260904214328 80 276 0.0 3.0 0.00 0.07 0.00 63 1013.9
20260904213827 80 277 0.0 4.0 0.00 0.07 0.00 63 1014.0
20260904213327 80 286 0.0 4.0 0.00 0.07 0.00 62 1014.0
20260904212828 80 267 0.0 3.0 0.00 0.07 0.00 64 1013.9
20260904212327 80 271 0.0 4.0 0.00 0.07 0.00 63 1014.0
20260904211825 80 103 0.0 4.0 0.00 0.07 0.00 63 1014.0
20260904211325 80 163 0.0 4.0 0.00 0.07 0.00 64 1013.6
20260904210823 80 148 1.0 6.0 0.00 0.07 0.00 64 1014.1
20260904210554 80 278 0.0 6.0 0.00 0.07 0.00 64 1014.3
20260904210040 80 213 1.0 4.0 0.00 0.07 0.00 64 1014.4
20260904205323 80 248 0.0 4.0 0.00 0.07 0.00 63 1014.4
20260904204824 80 310 0.0 4.0 0.00 0.07 0.00 63 1014.5
20260904204550 80 282 0.0 2.0 0.00 0.07 0.00 65 1014.4
20260904203824 79 284 0.0 3.0 0.00 0.07 0.00 66 1014.4
20260904203323 79 284 0.0 3.0 0.00 0.07 0.00 68 1014.3
20260904202823 78 128 0.0 4.0 0.00 0.07 0.00 69 1014.6
20260904202323 78 184 0.0 4.0 0.00 0.07 0.00 69 1014.6
20260904201821 79 257 0.0 2.0 0.00 0.07 0.00 67 1014.5
20260904201321 79 291 0.0 3.0 0.00 0.07 0.00 67 1014.7
20260904200821 79 96 0.0 4.0 0.00 0.07 0.00 68 1014.8
20260904200321 79 265 1.0 7.0 0.00 0.07 0.00 67 1014.8